Lapse_Rate
6.5 6.2 6.5 6.6 7.3 8.2 7.7 8.1 7.8 7.5 7.4 7.5 7.6 8.0 7.3 7.4 8.0 6.2 4.9 5.4 5.3 6.0 8.6 8.8 8.9 7.8 7.7 7.7 8.1 8.8 8.7 9.0 9.4 9.7 9.7 9.7 9.5 9.6 9.5 9.7 9.7 9.6 8.7
7.5 7.5 8.0 7.9 8.3 8.9 8.9 8.9 7.9 7.8 7.7 7.8 7.0 7.2 7.1 7.0 7.1 7.2 5.0 5.6 6.1 6.6 8.2 8.6 9.1 9.2 9.1 8.5 8.6 8.1 8.4 8.5 8.8 9.3 9.7 9.7 9.7 9.7 9.6 9.7 9.7 9.7 9.7
8.3 8.3 8.0 7.8 8.7 9.0 8.9 8.9 8.5 8.9 7.8 8.3 6.9 7.1 6.4 6.9 6.6 7.4 8.0 6.1 6.2 6.7 6.7 7.4 8.0 7.7 7.8 8.1 8.3 8.5 8.8 8.9 9.0 9.4 9.6 9.7 9.7 9.7 9.7 9.6 9.7 9.7 9.7
8.5 8.0 7.6 7.7 8.8 8.4 8.4 7.6 7.0 6.8 6.8 6.6 5.8 5.9 7.3 7.6 7.4 7.6 8.6 8.2 6.8 6.6 6.4 6.7 6.9 6.9 7.1 7.5 7.8 8.1 8.5 8.5 8.9 9.5 9.6 9.7 9.7 9.7 9.7 9.7 9.6 9.6 9.6
8.7 8.1 8.1 8.2 8.5 7.7 7.4 7.4 6.5 6.9 6.8 7.0 6.5 6.3 7.0 7.4 7.7 9.0 8.3 8.0 8.1 8.5 7.3 6.7 6.9 7.2 7.2 7.4 7.7 8.1 8.1 8.0 8.3 9.1 9.6 9.7 9.7 9.7 9.7 9.6 9.6 9.6 9.7
8.0 7.6 7.6 7.9 7.5 6.9 6.6 7.1 7.0 6.8 7.0 6.3 8.8 6.9 5.7 6.7 7.3 7.4 7.5 8.6 8.7 8.6 8.4 8.4 7.7 7.8 7.6 7.8 8.1 8.6 8.7 8.5 8.7 9.5 9.7 9.7 9.7 9.6 9.6 9.6 9.6 9.6 9.6
7.4 7.4 7.0 7.4 6.6 6.3 6.6 6.6 6.7 6.9 6.3 6.5 6.2 5.6 5.3 4.7 5.3 5.6 7.5 7.8 8.6 8.7 8.8 9.0 8.7 8.8 7.8 8.1 8.4 8.5 8.4 8.6 8.8 8.8 9.4 9.6 9.6 9.5 9.5 9.5 9.5 9.5 9.5
7.7 6.8 6.3 6.4 5.3 5.9 6.8 6.3 5.9 5.5 5.7 5.6 5.5 5.6 5.5 5.2 5.2 4.7 5.2 5.7 6.8 8.4 8.8 8.9 8.9 9.0 8.9 9.0 8.4 8.0 8.5 8.5 7.9 8.0 8.3 9.0 9.5 9.5 9.4 9.5 9.5 9.5 9.7
8.0 7.8 6.9 7.0 6.2 5.6 5.8 5.3 5.1 5.1 5.3 5.9 5.8 5.0 5.6 5.0 5.3 4.4 5.5 5.4 5.8 5.8 8.0 8.8 8.9 9.2 9.3 9.1 8.5 7.6 6.4 6.5 6.9 7.4 7.8 8.0 8.6 9.4 9.4 9.4 9.4 9.4 9.4
7.1 7.7 8.1 7.7 6.9 6.0 5.8 5.0 4.5 5.1 6.6 6.1 5.6 5.9 5.7 4.9 5.1 6.1 5.1 5.3 5.7 6.3 5.9 7.6 8.6 9.0 9.0 9.2 8.9 5.8 5.2 5.3 5.8 6.4 7.1 7.7 8.0 9.3 9.4 9.4 9.5 9.6 9.5
6.4 6.2 7.2 7.0 5.9 5.5 4.9 5.1 5.0 5.2 5.3 5.8 6.0 5.7 4.9 5.3 5.8 6.4 5.1 6.2 6.2 5.9 5.7 6.5 7.9 8.1 8.6 8.9 7.1 5.0 4.8 5.1 5.7 5.8 6.5 7.1 7.5 8.0 8.2 8.6 9.5 9.6 9.5
5.2 5.4 6.4 6.5 5.5 4.1 4.4 4.8 4.9 5.5 5.5 6.0 4.3 4.7 5.3 5.6 6.2 6.5 6.1 5.7 5.9 6.3 6.8 6.7 6.3 7.3 8.5 9.0 8.2 5.4 5.1 5.5 5.6 6.2 6.7 6.6 6.8 7.1 7.3 7.8 8.6 9.4 9.5
5.5 5.2 5.0 4.9 3.9 4.2 4.1 4.3 4.5 5.8 4.9 3.6 4.0 4.1 4.9 5.1 5.3 5.3 6.5 7.2 6.4 6.7 7.0 6.8 6.9 7.7 8.3 8.8 7.3 5.4 5.1 5.8 6.3 6.4 6.4 6.4 7.1 7.5 7.4 7.2 7.4 8.1 9.1
5.8 5.3 4.5 4.9 3.8 3.4 4.1 5.0 4.0 3.3 3.1 3.0 3.6 3.7 4.1 4.0 4.4 5.5 7.8 7.7 6.9 7.1 6.2 6.5 7.1 7.6 8.4 8.5 7.6 6.9 6.5 6.6 6.4 6.5 6.3 6.6 7.5 7.9 7.7 7.1 6.9 7.0 7.4
5.7 4.3 4.3 3.5 3.0 3.8 4.1 2.9 2.6 2.9 2.8 3.0 3.5 4.0 3.8 3.7 5.0 5.9 6.9 8.0 6.0 3.7 5.3 6.3 6.4 8.1 8.4 7.9 7.1 6.7 6.8 7.9 7.2 6.4 6.3 6.9 8.0 8.4 8.0 7.8 7.4 7.1 7.1
2.9 1.9 2.7 3.6 3.5 3.8 2.2 2.3 2.6 2.3 2.5 2.5 2.7 3.4 3.9 4.1 5.2 6.1 7.8 6.9 6.7 5.9 5.1 6.6 6.7 6.7 8.0 8.8 8.8 8.0 7.9 7.8 7.8 8.0 8.2 8.2 8.0 7.9 7.8 7.8 7.7 7.3 7.0
3.3 3.9 3.9 3.8 3.3 1.9 2.4 1.6 1.0 1.4 2.0 2.5 3.8 4.0 4.4 4.6 5.5 7.0 7.4 7.0 6.5 6.3 5.8 6.0 6.4 6.7 6.2 5.9 8.0 8.0 8.1 8.0 8.1 8.7 8.8 8.0 7.8 7.2 7.3 7.6 7.6 7.6 7.5
4.4 4.2 3.6 2.5 2.0 1.2 0.7 1.2 1.7 2.3 3.2 3.8 4.4 4.4 4.6 6.3 6.3 7.5 7.3 6.8 6.7 6.6 6.8 6.3 5.8 5.6 5.7 6.1 6.8 5.9 7.6 8.6 8.3 8.5 8.8 8.6 7.9 7.2 7.1 7.2 7.3 7.5 7.7
1.4 1.4 1.3 1.4 0.6 1.0 0.7 1.5 2.4 3.0 3.6 4.3 4.4 4.6 5.4 6.2 6.4 6.8 6.3 6.6 6.8 8.0 7.0 5.5 5.9 5.3 5.3 5.5 5.7 5.7 5.7 6.6 8.2 8.8 9.0 9.0 8.4 7.7 7.7 7.5 7.4 7.5 7.6
1.0 1.1 1.0 1.0 0.8 1.3 2.5 3.1 3.4 3.6 4.4 4.5 4.7 5.3 6.0 6.4 6.5 6.6 6.8 7.1 7.3 6.8 6.9 6.3 6.1 6.0 5.2 5.7 5.3 5.1 5.0 5.2 5.6 9.0 9.1 8.8 9.0 9.1 8.8 7.9 7.7 7.7 7.9
1.9 1.4 1.2 1.3 1.9 2.6 3.4 4.3 5.1 5.0 5.0 5.3 5.3 6.0 6.3 6.2 5.9 5.9 7.5 7.1 6.0 5.8 5.5 5.5 5.8 5.4 5.5 5.4 5.3 5.5 6.0 6.1 5.7 6.2 5.7 6.4 7.6 8.1 8.4 8.9 9.1 9.0 8.6
3.1 3.1 3.3 3.4 3.5 5.0 3.7 4.5 5.4 5.1 5.2 5.4 5.4 6.0 6.4 6.0 5.8 4.8 5.7 5.4 6.0 6.1 5.8 5.3 6.0 6.6 6.0 5.9 5.3 5.4 5.3 5.6 5.1 6.6 6.5 5.1 7.3 6.2 7.8 8.9 9.4 8.7 8.2
4.9 4.9 5.3 5.5 6.7 5.2 3.8 3.9 3.4 5.1 5.2 5.6 6.3 7.1 7.9 9.3 6.8 7.0 6.2 5.0 4.2 4.4 3.9 5.8 5.5 5.6 5.7 5.7 4.7 5.4 5.3 5.4 5.8 5.9 6.0 5.4 5.3 5.3 7.8 9.3 9.4 9.0 8.9
6.2 6.4 6.2 5.8 6.1 6.4 4.0 4.1 3.3 4.4 5.7 6.8 7.3 7.5 7.2 7.1 7.1 6.3 5.8 5.3 6.2 6.8 5.7 4.9 4.3 5.4 5.5 5.1 5.2 5.5 5.3 6.1 5.8 5.5 6.5 5.2 5.3 5.8 6.3 8.2 8.9 9.2 9.3
6.1 6.6 7.7 7.0 7.3 6.7 4.6 4.1 3.9 5.7 5.6 5.2 6.3 6.0 5.8 5.5 5.6 5.2 4.9 4.8 5.6 6.8 8.7 9.0 7.6 6.7 6.9 7.3 6.6 4.9 4.3 4.6 3.5 5.0 5.5 6.6 6.2 5.2 6.1 6.0 8.3 9.1 9.5
8.2 8.6 8.5 7.6 6.7 5.4 4.3 3.7 4.8 3.6 3.1 1.9 3.2 4.4 4.4 4.8 4.3 4.7 4.4 4.7 5.0 5.3 6.0 6.1 6.5 5.6 5.1 4.4 5.0 5.3 5.2 6.2 5.6 5.1 4.9 7.0 6.4 5.9 5.0 5.8 5.9 8.1 8.4
Wind_Speed
9 12 12 14 14 15 15 10 12 8 7 6 5 5 7 5 6 14 12 11 6 3 9 9 8 7 7 6 5 5 4 6 6 8 8 10 7 10 10 10 10 11 13
8 10 11 11 13 12 12 9 11 8 8 10 5 5 6 5 6 7 13 14 11 5 9 8 8 7 6 4 2 3 3 5 7 8 9 10 9 10 8 9 10 9 10
9 4 4 4 8 14 10 7 10 6 6 7 8 6 7 2 6 2 7 14 14 14 12 9 7 6 4 3 2 2 4 6 8 8 8 8 9 10 11 12 13 12 12
13 9 7 6 9 9 7 6 3 3 4 5 4 4 4 4 5 1 3 7 14 12 13 14 11 8 5 2 0 3 6 8 8 9 9 9 9 9 11 12 14 15 15
15 13 9 9 9 9 5 5 3 3 3 2 4 3 2 2 9 8 7 4 2 4 13 11 10 10 9 8 5 4 6 9 9 9 10 11 10 11 13 14 15 16 16
15 13 10 9 12 4 4 3 4 4 2 4 5 5 5 3 3 4 6 7 9 4 2 8 10 10 12 8 7 6 5 7 6 9 11 12 11 14 15 16 17 18 18
16 18 12 9 10 5 5 5 4 4 3 2 1 3 4 6 4 3 8 8 9 11 9 5 3 4 12 10 11 7 6 5 6 8 10 12 14 15 16 17 17 19 20
17 12 10 6 9 5 6 6 6 3 2 4 3 3 2 1 3 5 5 6 7 5 4 7 11 5 6 8 4 10 8 5 4 5 8 12 14 16 18 19 21 20 23
19 16 15 10 9 6 5 5 6 7 5 4 6 3 2 2 1 3 7 3 5 4 9 8 4 10 10 6 6 10 11 7 3 2 6 10 13 16 18 19 22 24 25
14 13 13 11 8 8 5 6 5 4 4 4 2 3 2 2 1 3 2 5 5 4 5 7 11 2 4 6 6 15 14 9 4 0 5 10 15 18 19 21 23 25 25
13 11 10 10 6 5 4 6 6 7 4 4 3 4 2 2 4 3 3 3 1 4 6 9 8 5 3 10 8 17 16 11 5 2 6 11 15 18 20 22 23 24 24
8 13 16 10 10 6 5 5 5 7 5 1 4 3 2 2 3 3 2 4 2 2 2 5 9 9 9 6 4 17 14 10 7 6 9 11 15 17 20 22 23 24 25
7 10 6 6 5 8 9 8 6 5 4 6 4 2 0 2 3 3 2 3 3 4 3 2 5 11 14 13 11 18 16 13 11 11 11 11 14 19 22 23 23 24 24
8 8 8 10 9 9 7 5 3 5 6 4 5 4 3 3 4 3 3 2 5 5 3 5 3 5 8 11 14 18 20 17 15 12 11 13 16 20 19 21 22 24 25
2 4 5 6 6 6 7 6 5 7 6 5 5 4 2 3 2 3 4 6 4 3 4 4 3 5 4 8 14 19 16 12 12 14 15 17 19 18 18 20 22 25 26
4 4 3 4 6 5 7 6 5 5 8 5 5 5 3 2 5 6 8 4 4 4 4 3 4 3 6 10 10 16 14 13 14 17 20 21 20 17 19 20 22 25 26
6 7 7 7 5 8 7 8 8 8 8 6 2 3 3 5 7 7 5 4 3 3 5 3 3 3 4 5 8 12 15 14 13 16 15 13 16 20 22 20 21 23 24
4 5 6 7 7 7 8 10 9 7 9 7 6 5 7 7 9 9 4 6 4 5 5 9 6 4 6 6 7 6 10 14 15 12 13 14 19 25 23 20 23 25 26
7 7 8 8 9 9 9 8 9 9 7 8 8 7 7 8 9 6 5 5 5 7 7 5 6 4 5 4 6 6 5 10 15 16 19 22 22 22 23 25 27 29 28
8 8 8 9 9 7 8 8 9 8 6 5 6 6 8 7 8 8 8 11 8 8 9 7 8 7 5 6 4 5 4 3 4 10 8 9 14 18 22 24 27 30 31
8 8 8 7 7 7 6 7 5 3 4 5 5 6 7 10 14 12 10 9 6 6 6 6 7 4 4 4 4 3 2 2 4 4 2 3 7 8 8 14 17 12 7
8 8 7 7 6 4 9 6 3 3 3 5 6 9 11 13 15 18 22 21 15 11 11 6 10 11 8 4 4 3 2 2 3 3 2 3 3 3 11 16 18 12 9
7 7 6 7 5 6 8 6 6 4 5 7 7 7 6 7 7 6 8 12 14 17 14 13 11 12 11 8 4 4 4 4 5 4 1 3 2 4 13 15 12 14 19
7 5 5 4 4 5 10 7 7 5 5 6 6 6 7 7 7 8 8 8 9 9 9 9 10 13 11 7 6 5 6 4 2 3 3 4 3 5 5 9 11 14 20
4 4 5 5 5 5 10 7 3 3 5 6 7 7 10 11 14 17 13 13 14 14 18 23 21 22 25 20 12 2 3 3 3 3 3 3 5 3 3 2 10 14 12
6 4 5 6 6 10 12 12 7 4 6 5 6 9 11 11 17 20 13 12 14 13 13 13 13 9 11 12 15 10 5 6 5 2 5 5 3 1 3 3 2 13 18
Wind_Direction
152 166 176 159 191 184 183 199 119 138 119 123 111 104 115 87 19 115 114 110 108 95 158 145 143 136 128 122 103 84 92 40 26 2 4 2 6 353 8 7 8 5 2
189 193 175 176 192 157 185 157 156 142 178 133 100 69 46 72 72 77 121 115 113 108 164 163 162 165 169 166 142 79 19 357 349 343 342 343 345 357 353 354 349 344 342
191 187 163 202 194 179 175 159 149 170 129 169 140 178 151 160 103 57 123 136 131 130 126 123 136 126 123 118 153 338 330 330 328 330 332 333 339 339 336 338 334 331 327
191 220 198 206 182 141 153 138 144 177 200 192 145 178 149 142 130 185 271 123 156 159 156 147 147 148 151 148 255 319 320 321 323 321 324 324 323 328 327 326 324 322 321
216 204 213 183 168 144 176 168 195 203 186 176 150 172 155 216 167 204 133 170 67 171 165 174 176 186 189 199 224 270 303 308 313 316 318 314 314 318 320 320 319 316 315
204 212 229 184 156 159 191 171 185 225 182 176 234 180 177 174 229 181 182 190 188 179 104 184 194 217 219 219 226 240 265 290 303 316 314 311 313 315 313 311 308 306 307
213 216 211 159 162 203 183 176 192 182 225 138 31 259 213 187 193 218 199 199 207 172 205 198 314 305 198 214 231 231 234 243 275 303 308 312 311 307 304 303 305 310 310
198 201 217 175 177 216 176 169 186 173 210 177 186 236 240 91 214 207 222 191 198 199 196 206 205 238 269 252 183 197 217 245 286 297 306 310 308 307 306 306 305 302 301
198 197 204 184 178 200 177 184 182 185 191 203 182 186 269 235 160 190 212 214 179 175 210 239 227 221 239 224 174 176 147 143 122 343 310 309 308 307 306 306 305 304 302
188 216 201 205 183 187 196 186 181 183 200 194 153 214 218 124 214 301 131 211 193 179 192 216 235 195 326 287 227 147 141 131 123 59 321 308 304 303 303 303 301 300 299
174 197 225 209 176 184 190 191 191 197 205 196 184 178 129 166 220 223 279 308 197 203 212 209 183 132 282 277 137 141 146 153 168 235 292 296 300 304 304 304 303 300 298
186 196 209 203 178 179 211 209 204 212 197 339 116 100 144 185 212 188 207 241 260 251 186 156 172 185 208 229 181 162 163 174 197 233 272 286 299 307 308 305 301 300 300
189 202 187 206 189 190 191 195 191 196 140 131 111 75 329 59 35 62 359 308 315 301 309 288 211 194 203 210 159 165 177 195 223 231 248 267 290 301 305 302 300 300 299
196 177 188 196 182 175 172 176 121 112 101 104 114 105 115 64 36 350 291 192 267 258 280 260 270 221 205 206 176 177 194 208 221 219 223 246 271 294 298 299 300 299 299
181 148 206 161 149 166 164 140 134 132 131 121 117 105 77 72 285 262 254 241 219 237 249 276 281 257 216 176 196 197 206 208 206 207 224 247 268 277 281 288 294 296 296
117 129 148 178 179 174 132 128 124 107 107 115 124 128 151 239 267 252 245 236 237 238 256 218 254 255 253 244 250 196 205 219 234 244 258 263 260 260 267 276 288 294 292
175 167 179 189 159 132 139 120 121 123 120 126 128 136 231 237 253 257 253 251 244 238 259 269 244 271 285 256 250 218 212 222 238 242 253 263 251 238 247 260 275 282 284
152 167 130 118 117 115 118 126 125 128 138 159 182 197 230 247 259 263 260 254 247 251 247 255 238 247 247 250 230 230 233 229 236 250 253 258 245 238 240 247 258 266 272
89 86 100 113 121 131 132 139 147 156 169 180 204 209 229 253 256 260 275 280 264 257 257 240 254 234 239 239 247 240 223 235 236 239 248 257 259 248 251 248 250 257 260
99 103 108 117 127 130 140 151 157 171 189 205 221 233 249 251 262 267 265 260 258 262 254 251 254 255 228 247 226 223 253 227 237 260 260 282 281 283 264 250 252 260 261
103 107 113 119 131 143 151 156 151 159 209 231 240 245 248 251 256 255 258 262 259 275 276 282 276 254 248 251 240 235 217 244 267 204 217 257 270 271 301 299 287 288 274
125 126 131 130 133 143 131 153 117 136 198 230 241 252 253 250 249 245 252 253 250 257 257 251 263 267 266 245 246 230 239 261 289 246 215 267 262 279 282 277 279 278 278
119 108 110 126 126 107 137 159 178 218 234 239 243 253 267 282 288 282 260 251 251 249 243 245 254 257 262 254 245 256 226 228 240 246 98 266 256 267 262 266 283 307 306
114 108 101 118 157 188 175 175 184 237 258 271 290 298 300 302 305 322 318 298 288 277 245 236 233 248 252 246 212 221 216 217 247 257 202 254 250 251 255 267 277 296 293
123 164 158 171 197 90 145 142 199 10 2 338 333 336 349 341 342 351 340 327 317 298 284 275 254 237 236 232 205 166 214 157 257 242 242 252 264 255 247 262 288 288 296
173 154 115 79 78 92 81 59 36 37 30 6 339 326 325 323 337 334 329 321 308 303 310 314 304 278 212 194 188 197 198 218 221 275 227 240 260 23 310 252 264 315 294